Regional Weather Roundup
Issued by NWS

Home | Current Version | Previous Version | Text Only | Print | Product List | Glossary On
Versions: 1 2 3 4 5 6 7 8 9 10 11 12 13 14 15 16 17 18 19 20 21 22 23 24 25 26 27 28 29 30 31 32 33 34 35 36 37 38 39 40 41 42 43 44 45 46 47 48 49 50
000
ASUS43 KMKX 300421
RWRWI

WISCONSIN REGIONAL WEATHER ROUNDUP
NATIONAL WEATHER SERVICE MILWAUKEE/SULLIVAN WI
1100 PM CDT MON MAY 29 2017

NOTE: "FAIR" INDICATES FEW OR NO CLOUDS BELOW 12,000 FEET WITH NO
SIGNIFICANT WEATHER AND/OR OBSTRUCTIONS TO VISIBILITY.

WIZ001-002-006>008-014>016-023>028-300500-
NORTHWEST WISCONSIN

CITY           SKY/WX    TMP DP  RH WIND       PRES   REMARKS
SUPERIOR ARPT  NOT AVBL
ASHLAND        CLOUDY    50  45  83 SW6       29.77S
HAYWARD        PTCLDY    49  46  90 S3        29.80S
SIREN          CLOUDY    54  45  72 W8        29.83S
CUMBERLAND     CLOUDY    50  45  81 SW6       29.84R
RICE LAKE      CLOUDY    52  46  79 CALM      29.85S
CHETEK         CLEAR     49  46  91 CALM      29.84S
LADYSMITH      CLOUDY    52  48  86 W7        29.84R
EAU CLAIRE     PTCLDY    52  45  77 W6        29.84S
MENOMONIE      CLOUDY    53  46  78 SW3       29.85F
NEW RICHMOND   CLOUDY    53  46  76 W9        29.85S
OSCEOLA        MOCLDY    54  47  77 W10       29.88R
$$

WIZ003>005-009-010-017-018-300500-
NORTH CENTRAL WISCONSIN

CITY           SKY/WX    TMP DP  RH WIND       PRES   REMARKS
MANITOWISH WTR CLOUDY    50  47  90 W8        29.77S
ARBOR VITAE    CLOUDY    53  49  84 W5        29.77S
WOODRUFF       CLOUDY    53  49  84 W5        29.77S
RHINELANDER    CLOUDY    52  50  93 W7        29.78F
EAGLE RIVER    CLOUDY    50  49  97 W5        29.76S
LAND O LAKES   CLOUDY    50  49  95 W6        29.78R
PHILLIPS       PTCLDY    49  49 100 CALM      29.80R
TOMAHAWK       CLOUDY    50  48  93 W5        29.80S
MEDFORD        CLOUDY    51  48  91 W7        29.81S
MERRILL        CLOUDY    52  51  93 W7        29.80S
$$

WIZ029-030-035-036-043>047-300500-
CENTRAL WISCONSIN

CITY           SKY/WX    TMP DP  RH WIND       PRES   REMARKS
WAUSAU         CLOUDY    52  50  93 W7        29.79S
MOSINEE        CLOUDY    50  50 100 W5        29.82S
MARSHFIELD     MOCLDY    51  49  92 W3        29.82R
STEVENS POINT  CLOUDY    52  48  86 W7        29.83S
WAUPACA        PTCLDY    55  50  81 SW6       29.83S
WAUTOMA        CLOUDY    53  51  93 SW6       29.85R
WISC RAPIDS    PTCLDY    53  48  83 W7        29.85R
CAMP DOUGLAS   PTCLDY    52  49  90 W8        29.85S
$$

WIZ011>013-019>022-031-037>040-048>050-300500-
NORTHEAST WISCONSIN

CITY           SKY/WX    TMP DP  RH WIND       PRES   REMARKS
ANTIGO         CLOUDY    49  49  99 W8        29.80S
SHAWANO        MOCLDY    54  50  86 SW6       29.80S
OCONTO         CLOUDY    53  50  91 W7        29.79R
STURGEON BAY   LGT RAIN  55  51  86 W8        29.79R
GREEN BAY      MOCLDY    57  50  77 W7        29.80S
MANITOWOC      PTCLDY    58  47  66 W10       29.81S
APPLETON       MOCLDY    55  45  67 SW8       29.81S
CLINTONVILLE   MOCLDY    54  46  76 W5        29.81S
OSHKOSH        PTCLDY    55  47  74 SW5       29.82F
$$

WIZ032>034-041-042-053>061-300500-
SOUTHWEST WISCONSIN

CITY           SKY/WX    TMP DP  RH WIND       PRES   REMARKS
LA CROSSE      CLEAR     57  50  77 W9        29.87S
SPARTA         PTCLDY    53  50  89 CALM      29.87S
VIROQUA        CLEAR     53  48  83 W8        29.89S
BOSCOBEL       MOCLDY    58  46  64 SW6       29.90R
PRAIRIE DU CHI PTCLDY    58  45  62 W7        29.90S
PLATTEVILLE    CLEAR     56  47  72 W6        29.91S
$$

WIZ056-057-062-063-064-067-068-300500-
SOUTH CENTRAL WISCONSIN

CITY           SKY/WX    TMP DP  RH WIND       PRES   REMARKS
REEDSBURG      MOCLDY    55  50  82 W8        29.87S
BARABOO/DELLS  MOCLDY    51  49  92 W5        29.87S
LONE ROCK      MOCLDY    58  46  64 W6        29.88S
MINERAL POINT  CLEAR     55  46  71 W7        29.90S
MADISON        CLEAR     55  51  86 CALM      29.87S
MIDDLETON      CLEAR     53  49  86 W6        29.88S
WATERTOWN      CLEAR     53  53 100 SW3       29.86F
MONROE         CLEAR     59  45  58 W9        29.90S
JANESVILLE     CLEAR     57  46  67 CALM      29.88S
$$

WIZ051-052-058>065-066-070>072-300500-
SOUTHEAST WISCONSIN

CITY           SKY/WX    TMP DP  RH WIND       PRES   REMARKS
MILWAUKEE      MOCLDY    57  51  80 W5        29.87R
WAUKESHA       PTCLDY    52  46  82 SW6       29.87F
MILWAUKEE/TIMM   N/A     52  46  82 SW3       29.87S
RACINE         CLEAR     56  47  71 SW3       29.88F
KENOSHA        PTCLDY    58  46  64 SW8       29.88S
FOND DU LAC    CLEAR     54  47  77 SW7       29.84S
SHEBOYGAN      CLEAR     54  49  83 SW9       29.83S
WEST BEND      CLEAR     54  48  82 SW5       29.85F
JUNEAU         CLEAR     53  49  86 CALM      29.87S
$$

LSZ147-162-300500-
LAKE SUPERIOR

STATION/POSITION TIME  TEMP    WIND        PRES    WAVE
                       AIR SEA DIR/SP/G            HT/PER
                 (UTC) (F)     (DEG/KT/KT) (MB)    (FT/S)
W MID LAKE BUOY  0350   43 37  260/ 14/ 14 1006.0R   2/ 4
DEVILS ISLAND    0400   49     230/ 13/ 16 1007.3R
SAXON HARBOR     0340   54     210/  4/  5 1007.8S
$$

LMZ867-665-643>646-300500-
LAKE MICHIGAN

STATION/POSITION TIME  TEMP    WIND        PRES    WAVE
                       AIR SEA DIR/SP/G            HT/PER
                 (UTC) (F)     (DEG/KT/KT) (MB)    (FT/S)
CHAMBERS ISLAND  0340   56     220/  8/ 13 1007.1S
N MID LAKE BUOY  0350   47 41  230/ 14/ 16 1007.6S   2/ 4
NORTHPORT PIER   0340   57     270/  6/ 11 1007.1S
KEWAUNEE LAKESHO 0354   58     260/  7/ 10 1008.4F
SHEBOYGAN LAKESH 0400   58     240/ 11/ 14 1009.9R
PORT WASHINGTON  0340   59     250/  5/  6 1011.9R
ATWATER BUOY     0309   56     250/  8/  8 1011.2R
MILWAUKEE LAKESH 0400   59     280/  7/  8   N/A
S MID LAKE BUOY  0350   54 48  330/ 12/ 12 1011.5F   1/ 4
KENOSHA   LAKESH 0400   60     210/  7/  9 1011.9
$$

TC  - TEMPERATURE IN CELSIUS
VSB - VISIBILITY IN STATUTE MILES
WCI - WIND CHILL INDEX
HX  - HEAT INDEX




USA.gov is the U.S. government's official web portal to all federal, state and local government web resources and services.